Time,TemperatureF,DewpointF,PressureIn,WindDirection,WindDirectionDegrees,WindSpeedMPH,WindSpeedGustMPH,Humidity,HourlyPrecipIn,Conditions,Clouds,dailyrainin,SoftwareType,DateUTC
2013-07-15 00:00:00,69.6,66.9,30.24,South,186,0.0,0.0,91,0.00,,,0.00,Wunderground v.1.13,2013-07-15 04:00:00,
2013-07-15 00:01:00,69.6,67.2,30.24,South,186,0.0,0.0,92,0.00,,,0.00,Wunderground v.1.13,2013-07-15 04:01:00,
2013-07-15 00:06:00,69.4,67.0,30.24,South,186,0.0,0.0,92,0.00,,,0.00,Wunderground v.1.13,2013-07-15 04:06:00,
2013-07-15 00:11:00,69.3,67.2,30.24,South,186,0.0,0.0,93,0.00,,,0.00,Wunderground v.1.13,2013-07-15 04:11:00,
2013-07-15 00:16:00,69.2,67.1,30.24,South,186,0.0,0.0,93,0.00,,,0.00,Wunderground v.1.13,2013-07-15 04:16:00,
2013-07-15 00:21:00,69.0,66.9,30.24,South,186,0.0,0.0,93,0.00,,,0.00,Wunderground v.1.13,2013-07-15 04:21:00,
2013-07-15 00:26:00,68.7,66.6,30.24,South,186,0.0,0.0,93,0.00,,,0.00,Wunderground v.1.13,2013-07-15 04:26:00,
2013-07-15 00:31:00,68.6,66.5,30.24,South,186,0.0,0.0,93,0.00,,,0.00,Wunderground v.1.13,2013-07-15 04:31:00,
2013-07-15 00:36:00,68.3,66.5,30.24,South,186,0.0,0.0,94,0.00,,,0.00,Wunderground v.1.13,2013-07-15 04:36:00,
2013-07-15 00:41:00,68.2,66.4,30.24,South,186,0.0,0.0,94,0.00,,,0.00,Wunderground v.1.13,2013-07-15 04:41:00,
2013-07-15 00:46:00,68.0,66.2,30.24,South,186,0.0,0.0,94,0.00,,,0.00,Wunderground v.1.13,2013-07-15 04:46:00,
2013-07-15 00:51:00,67.8,66.0,30.24,South,186,0.0,0.0,94,0.00,,,0.00,Wunderground v.1.13,2013-07-15 04:51:00,
2013-07-15 00:56:00,67.5,65.7,30.24,South,186,0.0,0.0,94,0.00,,,0.00,Wunderground v.1.13,2013-07-15 04:56:00,
2013-07-15 01:02:00,67.3,65.5,30.24,South,186,0.0,0.0,94,0.00,,,0.00,Wunderground v.1.13,2013-07-15 05:02:00,
2013-07-15 01:08:00,67.2,65.4,30.24,South,186,0.0,0.0,94,0.00,,,0.00,Wunderground v.1.13,2013-07-15 05:08:00,
2013-07-15 01:14:00,67.0,65.5,30.24,South,186,0.0,0.0,95,0.00,,,0.00,Wunderground v.1.13,2013-07-15 05:14:00,
2013-07-15 01:20:00,66.9,65.4,30.24,South,186,0.0,0.0,95,0.00,,,0.00,Wunderground v.1.13,2013-07-15 05:20:00,
2013-07-15 01:25:00,66.7,65.2,30.24,South,186,0.0,0.0,95,0.00,,,0.00,Wunderground v.1.13,2013-07-15 05:25:00,
2013-07-15 01:31:00,66.6,65.1,30.24,South,186,0.0,0.0,95,0.00,,,0.00,Wunderground v.1.13,2013-07-15 05:31:00,
2013-07-15 01:37:00,66.5,65.0,30.24,South,186,0.0,0.0,95,0.00,,,0.00,Wunderground v.1.13,2013-07-15 05:37:00,
2013-07-15 01:42:00,66.2,64.7,30.24,South,186,0.0,0.0,95,0.00,,,0.00,Wunderground v.1.13,2013-07-15 05:42:00,
2013-07-15 01:48:00,66.2,65.0,30.24,South,186,0.0,0.0,96,0.00,,,0.00,Wunderground v.1.13,2013-07-15 05:48:00,
2013-07-15 01:54:00,66.0,64.8,30.24,South,186,0.0,0.0,96,0.00,,,0.00,Wunderground v.1.13,2013-07-15 05:54:00,
2013-07-15 02:00:00,65.9,64.7,30.25,South,186,0.0,0.0,96,0.00,,,0.00,Wunderground v.1.13,2013-07-15 06:00:00,
2013-07-15 02:05:00,65.8,64.6,30.25,South,186,0.0,0.0,96,0.00,,,0.00,Wunderground v.1.13,2013-07-15 06:05:00,
2013-07-15 02:10:00,65.7,64.5,30.25,South,186,0.0,0.0,96,0.00,,,0.00,Wunderground v.1.13,2013-07-15 06:10:00,
2013-07-15 02:16:00,65.6,64.4,30.25,South,186,0.0,0.0,96,0.00,,,0.00,Wunderground v.1.13,2013-07-15 06:16:00,
2013-07-15 02:22:00,65.5,64.3,30.25,South,186,0.0,0.0,96,0.00,,,0.00,Wunderground v.1.13,2013-07-15 06:22:00,
2013-07-15 02:28:00,65.4,64.2,30.25,South,186,0.0,0.0,96,0.00,,,0.00,Wunderground v.1.13,2013-07-15 06:28:00,
2013-07-15 02:33:00,65.3,64.1,30.25,South,186,0.0,0.0,96,0.00,,,0.00,Wunderground v.1.13,2013-07-15 06:33:00,
2013-07-15 02:39:00,65.2,64.0,30.25,South,186,0.0,0.0,96,0.00,,,0.00,Wunderground v.1.13,2013-07-15 06:39:00,
2013-07-15 02:45:00,65.0,63.8,30.25,South,186,0.0,0.0,96,0.00,,,0.00,Wunderground v.1.13,2013-07-15 06:45:00,
2013-07-15 02:51:00,64.9,63.7,30.25,South,186,0.0,0.0,96,0.00,,,0.00,Wunderground v.1.13,2013-07-15 06:51:00,
2013-07-15 02:56:00,64.8,63.6,30.24,South,186,0.0,0.0,96,0.00,,,0.00,Wunderground v.1.13,2013-07-15 06:56:00,
2013-07-15 03:01:00,64.7,63.5,30.24,South,186,0.0,0.0,96,0.00,,,0.00,Wunderground v.1.13,2013-07-15 07:01:00,
2013-07-15 03:06:00,64.6,63.4,30.25,South,186,0.0,0.0,96,0.00,,,0.00,Wunderground v.1.13,2013-07-15 07:06:00,
2013-07-15 03:11:00,64.5,63.6,30.25,South,186,0.0,0.0,97,0.00,,,0.00,Wunderground v.1.13,2013-07-15 07:11:00,
2013-07-15 03:16:00,64.3,63.1,30.25,South,186,0.0,0.0,96,0.00,,,0.00,Wunderground v.1.13,2013-07-15 07:16:00,
2013-07-15 03:21:00,64.3,63.4,30.25,South,186,0.0,0.0,97,0.00,,,0.00,Wunderground v.1.13,2013-07-15 07:21:00,
2013-07-15 03:26:00,64.2,63.3,30.25,South,186,0.0,0.0,97,0.00,,,0.00,Wunderground v.1.13,2013-07-15 07:26:00,
2013-07-15 03:31:00,64.1,63.2,30.25,South,186,0.0,0.0,97,0.00,,,0.00,Wunderground v.1.13,2013-07-15 07:31:00,
2013-07-15 03:36:00,64.1,63.2,30.25,South,186,0.0,0.0,97,0.00,,,0.00,Wunderground v.1.13,2013-07-15 07:36:00,
2013-07-15 03:41:00,64.1,63.2,30.25,South,186,0.0,0.0,97,0.00,,,0.00,Wunderground v.1.13,2013-07-15 07:41:00,
2013-07-15 03:46:00,64.0,63.1,30.25,South,186,0.0,0.0,97,0.00,,,0.00,Wunderground v.1.13,2013-07-15 07:46:00,
2013-07-15 03:51:00,64.0,63.1,30.25,South,186,0.0,0.0,97,0.00,,,0.00,Wunderground v.1.13,2013-07-15 07:51:00,
2013-07-15 03:56:00,63.8,62.9,30.26,South,186,0.0,0.0,97,0.00,,,0.00,Wunderground v.1.13,2013-07-15 07:56:00,
2013-07-15 04:01:00,63.8,62.9,30.25,South,186,0.0,0.0,97,0.00,,,0.00,Wunderground v.1.13,2013-07-15 08:01:00,
2013-07-15 04:06:00,63.7,62.8,30.25,South,186,0.0,0.0,97,0.00,,,0.00,Wunderground v.1.13,2013-07-15 08:06:00,
2013-07-15 04:11:00,63.7,62.8,30.25,South,186,0.0,0.0,97,0.00,,,0.00,Wunderground v.1.13,2013-07-15 08:11:00,
2013-07-15 04:16:00,63.6,62.7,30.26,South,186,0.0,0.0,97,0.00,,,0.00,Wunderground v.1.13,2013-07-15 08:16:00,
2013-07-15 04:21:00,63.5,62.6,30.26,South,186,0.0,0.0,97,0.00,,,0.00,Wunderground v.1.13,2013-07-15 08:21:00,
2013-07-15 04:26:00,63.4,62.5,30.26,South,186,0.0,0.0,97,0.00,,,0.00,Wunderground v.1.13,2013-07-15 08:26:00,
2013-07-15 04:31:00,63.3,62.4,30.26,South,186,0.0,0.0,97,0.00,,,0.00,Wunderground v.1.13,2013-07-15 08:31:00,
2013-07-15 04:36:00,63.3,62.4,30.26,South,186,0.0,0.0,97,0.00,,,0.00,Wunderground v.1.13,2013-07-15 08:36:00,
2013-07-15 04:41:00,63.1,62.2,30.26,South,186,0.0,0.0,97,0.00,,,0.00,Wunderground v.1.13,2013-07-15 08:41:00,
2013-07-15 04:46:00,63.1,62.2,30.26,South,186,0.0,0.0,97,0.00,,,0.00,Wunderground v.1.13,2013-07-15 08:46:00,
2013-07-15 04:51:00,63.0,62.1,30.26,South,186,0.0,0.0,97,0.00,,,0.00,Wunderground v.1.13,2013-07-15 08:51:00,
2013-07-15 04:56:00,63.0,62.1,30.26,South,186,0.0,0.0,97,0.00,,,0.00,Wunderground v.1.13,2013-07-15 08:56:00,
2013-07-15 05:01:00,63.0,62.1,30.26,South,186,0.0,0.0,97,0.00,,,0.00,Wunderground v.1.13,2013-07-15 09:01:00,
2013-07-15 05:06:00,62.8,61.9,30.27,South,186,0.0,0.0,97,0.00,,,0.00,Wunderground v.1.13,2013-07-15 09:06:00,
2013-07-15 05:11:00,62.7,61.8,30.27,South,186,0.0,0.0,97,0.00,,,0.00,Wunderground v.1.13,2013-07-15 09:11:00,
2013-07-15 05:16:00,62.6,61.7,30.27,South,186,0.0,0.0,97,0.00,,,0.00,Wunderground v.1.13,2013-07-15 09:16:00,
2013-07-15 05:21:00,62.6,62.3,30.27,South,186,0.0,0.0,99,0.00,,,0.00,Wunderground v.1.13,2013-07-15 09:21:00,
2013-07-15 05:26:00,62.7,61.8,30.27,South,186,0.0,0.0,97,0.00,,,0.00,Wunderground v.1.13,2013-07-15 09:26:00,
2013-07-15 05:31:00,62.6,61.7,30.27,South,186,0.0,0.0,97,0.00,,,0.00,Wunderground v.1.13,2013-07-15 09:31:00,
2013-07-15 05:36:00,62.5,61.6,30.27,South,186,0.0,0.0,97,0.00,,,0.00,Wunderground v.1.13,2013-07-15 09:36:00,
2013-07-15 05:41:00,62.5,61.6,30.27,South,186,0.0,0.0,97,0.00,,,0.00,Wunderground v.1.13,2013-07-15 09:41:00,
2013-07-15 05:46:00,62.3,61.4,30.27,South,186,0.0,0.0,97,0.00,,,0.00,Wunderground v.1.13,2013-07-15 09:46:00,
2013-07-15 05:51:00,62.2,61.3,30.27,South,186,0.0,0.0,97,0.00,,,0.00,Wunderground v.1.13,2013-07-15 09:51:00,
2013-07-15 05:56:00,62.1,61.2,30.27,South,186,0.0,0.0,97,0.00,,,0.00,Wunderground v.1.13,2013-07-15 09:56:00,
2013-07-15 06:01:00,62.0,61.1,30.27,South,186,0.0,0.0,97,0.00,,,0.00,Wunderground v.1.13,2013-07-15 10:01:00,
2013-07-15 06:06:00,62.0,61.1,30.27,South,179,0.0,0.0,97,0.00,,,0.00,Wunderground v.1.13,2013-07-15 10:06:00,
2013-07-15 06:11:00,62.0,61.1,30.28,South,179,0.0,0.0,97,0.00,,,0.00,Wunderground v.1.13,2013-07-15 10:11:00,
2013-07-15 06:16:00,62.0,61.1,30.28,South,179,0.0,0.0,97,0.00,,,0.00,Wunderground v.1.13,2013-07-15 10:16:00,
2013-07-15 06:21:00,62.1,61.5,30.29,South,179,0.0,0.0,98,0.00,,,0.00,Wunderground v.1.13,2013-07-15 10:21:00,
2013-07-15 06:26:00,62.1,61.5,30.29,South,179,0.0,0.0,98,0.00,,,0.00,Wunderground v.1.13,2013-07-15 10:26:00,
2013-07-15 06:31:00,62.1,61.5,30.29,South,179,0.0,0.0,98,0.00,,,0.00,Wunderground v.1.13,2013-07-15 10:31:00,
2013-07-15 06:36:00,62.2,61.6,30.29,South,179,0.0,0.0,98,0.00,,,0.00,Wunderground v.1.13,2013-07-15 10:36:00,
2013-07-15 06:41:00,62.2,61.6,30.29,South,179,0.0,0.0,98,0.00,,,0.00,Wunderground v.1.13,2013-07-15 10:41:00,
2013-07-15 06:46:00,62.4,61.8,30.29,South,179,0.0,0.0,98,0.00,,,0.00,Wunderground v.1.13,2013-07-15 10:46:00,
2013-07-15 06:51:00,62.7,62.1,30.29,South,179,0.0,0.0,98,0.00,,,0.00,Wunderground v.1.13,2013-07-15 10:51:00,
2013-07-15 06:56:00,62.8,62.2,30.29,South,179,0.0,0.0,98,0.00,,,0.00,Wunderground v.1.13,2013-07-15 10:56:00,
2013-07-15 07:01:00,63.0,62.4,30.29,South,179,0.0,0.0,98,0.00,,,0.00,Wunderground v.1.13,2013-07-15 11:01:00,
2013-07-15 07:06:00,63.2,62.6,30.29,South,179,0.0,0.0,98,0.00,,,0.00,Wunderground v.1.13,2013-07-15 11:06:00,
2013-07-15 07:11:00,63.5,62.9,30.29,South,179,0.0,0.0,98,0.00,,,0.00,Wunderground v.1.13,2013-07-15 11:11:00,
2013-07-15 07:16:00,64.0,63.4,30.30,South,179,0.0,0.0,98,0.00,,,0.00,Wunderground v.1.13,2013-07-15 11:16:00,
2013-07-15 07:21:00,64.3,63.7,30.30,South,179,0.0,0.0,98,0.00,,,0.00,Wunderground v.1.13,2013-07-15 11:21:00,
2013-07-15 07:26:00,64.3,63.7,30.30,South,179,0.0,0.0,98,0.00,,,0.00,Wunderground v.1.13,2013-07-15 11:26:00,
2013-07-15 07:31:00,64.5,63.9,30.30,South,179,0.0,0.0,98,0.00,,,0.00,Wunderground v.1.13,2013-07-15 11:31:00,
2013-07-15 07:36:00,64.8,64.2,30.30,South,179,0.0,0.0,98,0.00,,,0.00,Wunderground v.1.13,2013-07-15 11:36:00,
2013-07-15 07:41:00,65.0,64.4,30.30,South,179,0.0,0.0,98,0.00,,,0.00,Wunderground v.1.13,2013-07-15 11:41:00,
2013-07-15 07:46:00,65.6,65.0,30.30,South,179,0.0,0.0,98,0.00,,,0.00,Wunderground v.1.13,2013-07-15 11:46:00,
2013-07-15 07:51:00,66.1,65.5,30.30,South,179,0.0,0.0,98,0.00,,,0.00,Wunderground v.1.13,2013-07-15 11:51:00,
2013-07-15 07:56:00,66.5,65.9,30.30,South,179,0.0,0.0,98,0.00,,,0.00,Wunderground v.1.13,2013-07-15 11:56:00,
2013-07-15 08:01:00,66.9,66.3,30.30,South,179,0.0,0.0,98,0.00,,,0.00,Wunderground v.1.13,2013-07-15 12:01:00,
2013-07-15 08:07:00,67.8,67.2,30.30,South,179,0.0,0.0,98,0.00,,,0.00,Wunderground v.1.13,2013-07-15 12:07:00,
2013-07-15 08:12:00,68.6,68.0,30.30,South,179,0.0,0.0,98,0.00,,,0.00,Wunderground v.1.13,2013-07-15 12:12:00,
2013-07-15 08:17:00,69.2,68.3,30.30,South,179,0.0,0.0,97,0.00,,,0.00,Wunderground v.1.13,2013-07-15 12:17:00,
2013-07-15 08:22:00,69.9,68.4,30.30,South,179,0.0,0.0,95,0.00,,,0.00,Wunderground v.1.13,2013-07-15 12:22:00,
2013-07-15 08:27:00,70.8,69.0,30.30,South,179,0.0,0.0,94,0.00,,,0.00,Wunderground v.1.13,2013-07-15 12:27:00,
2013-07-15 08:32:00,71.5,69.1,30.30,South,179,0.0,0.0,92,0.00,,,0.00,Wunderground v.1.13,2013-07-15 12:32:00,
2013-07-15 08:37:00,71.9,69.1,30.30,South,179,0.0,0.0,91,0.00,,,0.00,Wunderground v.1.13,2013-07-15 12:37:00,
2013-07-15 08:42:00,72.3,69.2,30.30,South,179,0.0,0.0,90,0.00,,,0.00,Wunderground v.1.13,2013-07-15 12:42:00,
2013-07-15 08:47:00,72.8,69.7,30.30,South,179,0.0,0.0,90,0.00,,,0.00,Wunderground v.1.13,2013-07-15 12:47:00,
2013-07-15 08:52:00,73.3,69.9,30.30,South,179,0.0,0.0,89,0.00,,,0.00,Wunderground v.1.13,2013-07-15 12:52:00,
2013-07-15 08:57:00,74.0,70.2,30.30,South,179,0.0,0.0,88,0.00,,,0.00,Wunderground v.1.13,2013-07-15 12:57:00,
2013-07-15 09:02:00,74.6,69.8,30.30,South,179,0.0,0.0,85,0.00,,,0.00,Wunderground v.1.13,2013-07-15 13:02:00,
2013-07-15 09:07:00,75.2,70.7,30.30,South,179,0.0,0.0,86,0.00,,,0.00,Wunderground v.1.13,2013-07-15 13:07:00,
2013-07-15 09:12:00,76.1,70.9,30.30,South,179,0.0,0.0,84,0.00,,,0.00,Wunderground v.1.13,2013-07-15 13:12:00,
2013-07-15 09:17:00,77.0,71.4,30.30,South,179,0.0,0.0,83,0.00,,,0.00,Wunderground v.1.13,2013-07-15 13:17:00,
2013-07-15 09:22:00,77.9,71.6,30.30,South,179,0.0,0.0,81,0.00,,,0.00,Wunderground v.1.13,2013-07-15 13:22:00,
2013-07-15 09:27:00,78.3,72.7,30.30,South,179,0.0,0.0,83,0.00,,,0.00,Wunderground v.1.13,2013-07-15 13:27:00,
2013-07-15 09:32:00,79.0,71.9,30.30,South,179,0.0,0.0,79,0.00,,,0.00,Wunderground v.1.13,2013-07-15 13:32:00,
2013-07-15 09:37:00,79.5,70.5,30.30,South,179,0.0,0.0,74,0.00,,,0.00,Wunderground v.1.13,2013-07-15 13:37:00,
2013-07-15 09:42:00,79.7,70.7,30.30,South,179,0.0,0.0,74,0.00,,,0.00,Wunderground v.1.13,2013-07-15 13:42:00,
2013-07-15 09:47:00,80.2,71.6,30.30,South,179,0.0,0.0,75,0.00,,,0.00,Wunderground v.1.13,2013-07-15 13:47:00,
2013-07-15 09:52:00,80.4,73.3,30.29,South,179,0.0,0.0,79,0.00,,,0.00,Wunderground v.1.13,2013-07-15 13:52:00,
2013-07-15 09:57:00,80.8,71.3,30.29,South,179,1.0,4.0,73,0.00,,,0.00,Wunderground v.1.13,2013-07-15 13:57:00,
2013-07-15 10:02:00,80.8,69.7,30.29,South,188,0.0,6.0,69,0.00,,,0.00,Wunderground v.1.13,2013-07-15 14:02:00,
2013-07-15 10:07:00,81.4,70.7,30.30,SSW,203,0.0,3.0,70,0.00,,,0.00,Wunderground v.1.13,2013-07-15 14:07:00,
2013-07-15 10:12:00,81.9,70.7,30.29,SSW,207,0.0,3.0,69,0.00,,,0.00,Wunderground v.1.13,2013-07-15 14:12:00,
2013-07-15 10:17:00,82.2,70.6,30.29,SSW,207,0.0,4.0,68,0.00,,,0.00,Wunderground v.1.13,2013-07-15 14:17:00,
2013-07-15 10:22:00,82.0,70.8,30.29,SSW,207,0.0,2.0,69,0.00,,,0.00,Wunderground v.1.13,2013-07-15 14:22:00,
2013-07-15 10:27:00,81.5,70.3,30.29,SSW,207,0.0,2.0,69,0.00,,,0.00,Wunderground v.1.13,2013-07-15 14:27:00,
2013-07-15 10:32:00,81.4,70.2,30.29,SSW,207,1.0,3.0,69,0.00,,,0.00,Wunderground v.1.13,2013-07-15 14:32:00,
2013-07-15 10:37:00,81.3,71.0,30.29,SSW,207,0.0,0.0,71,0.00,,,0.00,Wunderground v.1.13,2013-07-15 14:37:00,
2013-07-15 10:42:00,81.1,70.0,30.29,SSW,207,0.0,1.0,69,0.00,,,0.00,Wunderground v.1.13,2013-07-15 14:42:00,
2013-07-15 10:47:00,81.5,71.2,30.29,SSW,207,3.0,4.0,71,0.00,,,0.00,Wunderground v.1.13,2013-07-15 14:47:00,
2013-07-15 10:52:00,81.3,69.7,30.29,SSW,207,0.0,2.0,68,0.00,,,0.00,Wunderground v.1.13,2013-07-15 14:52:00,
2013-07-15 10:57:00,80.9,70.2,30.29,WSW,238,0.0,1.0,70,0.00,,,0.00,Wunderground v.1.13,2013-07-15 14:57:00,
2013-07-15 11:02:00,81.3,71.8,30.30,WSW,238,1.0,3.0,73,0.00,,,0.00,Wunderground v.1.13,2013-07-15 15:02:00,
2013-07-15 11:07:00,81.7,71.0,30.29,WSW,238,0.0,0.0,70,0.00,,,0.00,Wunderground v.1.13,2013-07-15 15:07:00,
2013-07-15 11:13:00,82.1,70.1,30.29,WSW,238,0.0,4.0,67,0.00,,,0.00,Wunderground v.1.13,2013-07-15 15:13:00,
2013-07-15 11:18:00,82.4,70.3,30.29,WSW,238,0.0,4.0,67,0.00,,,0.00,Wunderground v.1.13,2013-07-15 15:18:00,
2013-07-15 11:23:00,82.9,70.4,30.29,WNW,289,0.0,5.0,66,0.00,,,0.00,Wunderground v.1.13,2013-07-15 15:23:00,
2013-07-15 11:29:00,83.2,70.2,30.29,NW,307,0.0,5.0,65,0.00,,,0.00,Wunderground v.1.13,2013-07-15 15:29:00,
2013-07-15 11:34:00,83.2,71.5,30.29,NW,315,0.0,5.0,68,0.00,,,0.00,Wunderground v.1.13,2013-07-15 15:34:00,
2013-07-15 11:39:00,83.7,72.0,30.29,NW,315,0.0,3.0,68,0.00,,,0.00,Wunderground v.1.13,2013-07-15 15:39:00,
2013-07-15 11:44:00,83.7,70.7,30.29,NW,324,0.0,3.0,65,0.00,,,0.00,Wunderground v.1.13,2013-07-15 15:44:00,
2013-07-15 11:49:00,83.7,70.7,30.29,NW,314,1.0,3.0,65,0.00,,,0.00,Wunderground v.1.13,2013-07-15 15:49:00,
2013-07-15 11:55:00,84.4,71.3,30.29,NW,314,0.0,2.0,65,0.00,,,0.00,Wunderground v.1.13,2013-07-15 15:55:00,
2013-07-15 12:00:00,83.7,70.7,30.29,NW,318,0.0,0.0,65,0.00,,,0.00,Wunderground v.1.13,2013-07-15 16:00:00,
2013-07-15 12:05:00,83.8,70.3,30.29,NW,318,0.0,0.0,64,0.00,,,0.00,Wunderground v.1.13,2013-07-15 16:05:00,
2013-07-15 12:10:00,84.1,71.1,30.28,NW,318,2.0,2.0,65,0.00,,,0.00,Wunderground v.1.13,2013-07-15 16:10:00,
2013-07-15 12:15:00,83.9,70.9,30.28,West,276,0.0,1.0,65,0.00,,,0.00,Wunderground v.1.13,2013-07-15 16:15:00,
2013-07-15 12:21:00,83.5,71.4,30.28,West,276,0.0,1.0,67,0.00,,,0.00,Wunderground v.1.13,2013-07-15 16:21:00,
2013-07-15 12:26:00,84.3,71.7,30.28,West,276,2.0,2.0,66,0.00,,,0.00,Wunderground v.1.13,2013-07-15 16:26:00,
2013-07-15 12:31:00,84.2,71.6,30.28,West,276,0.0,2.0,66,0.00,,,0.00,Wunderground v.1.13,2013-07-15 16:31:00,
2013-07-15 12:36:00,84.9,72.3,30.28,WSW,258,0.0,4.0,66,0.00,,,0.00,Wunderground v.1.13,2013-07-15 16:36:00,
2013-07-15 12:41:00,84.1,72.0,30.28,WSW,258,0.0,1.0,67,0.00,,,0.00,Wunderground v.1.13,2013-07-15 16:41:00,
2013-07-15 12:47:00,84.7,73.0,30.28,WSW,258,2.0,2.0,68,0.00,,,0.00,Wunderground v.1.13,2013-07-15 16:47:00,
2013-07-15 12:52:00,84.7,72.1,30.28,WSW,258,0.0,3.0,66,0.00,,,0.00,Wunderground v.1.13,2013-07-15 16:52:00,
2013-07-15 12:57:00,85.4,72.3,30.27,NW,306,0.0,4.0,65,0.00,,,0.00,Wunderground v.1.13,2013-07-15 16:57:00,
2013-07-15 13:03:00,85.2,72.1,30.27,NW,306,0.0,1.0,65,0.00,,,0.00,Wunderground v.1.13,2013-07-15 17:03:00,
2013-07-15 13:08:00,85.6,72.5,30.27,WNW,303,2.0,3.0,65,0.00,,,0.00,Wunderground v.1.13,2013-07-15 17:08:00,
2013-07-15 13:13:00,84.4,71.3,30.27,WNW,303,0.0,0.0,65,0.00,,,0.00,Wunderground v.1.13,2013-07-15 17:13:00,
2013-07-15 13:18:00,83.5,72.3,30.27,WNW,303,0.0,2.0,69,0.00,,,0.00,Wunderground v.1.13,2013-07-15 17:18:00,
2013-07-15 13:24:00,84.0,72.3,30.27,WNW,303,1.0,1.0,68,0.00,,,0.00,Wunderground v.1.13,2013-07-15 17:24:00,
2013-07-15 13:29:00,85.0,71.5,30.27,WNW,303,0.0,1.0,64,0.00,,,0.00,Wunderground v.1.13,2013-07-15 17:29:00,
2013-07-15 13:34:00,85.9,71.8,30.27,WNW,303,0.0,1.0,63,0.00,,,0.00,Wunderground v.1.13,2013-07-15 17:34:00,
2013-07-15 13:39:00,84.3,71.2,30.26,WNW,303,0.0,2.0,65,0.00,,,0.00,Wunderground v.1.13,2013-07-15 17:39:00,
2013-07-15 13:44:00,83.6,71.9,30.26,WNW,303,0.0,2.0,68,0.00,,,0.00,Wunderground v.1.13,2013-07-15 17:44:00,
2013-07-15 13:49:00,84.9,71.8,30.26,WNW,303,0.0,1.0,65,0.00,,,0.00,Wunderground v.1.13,2013-07-15 17:49:00,
2013-07-15 13:54:00,85.4,70.9,30.26,NW,310,2.0,5.0,62,0.00,,,0.00,Wunderground v.1.13,2013-07-15 17:54:00,
2013-07-15 13:59:00,86.0,71.9,30.26,NW,326,2.0,5.0,63,0.00,,,0.00,Wunderground v.1.13,2013-07-15 17:59:00,
2013-07-15 14:04:00,86.2,72.1,30.26,NNW,340,0.0,5.0,63,0.00,,,0.00,Wunderground v.1.13,2013-07-15 18:04:00,
2013-07-15 14:09:00,86.5,70.0,30.26,NNW,340,0.0,2.0,58,0.00,,,0.00,Wunderground v.1.13,2013-07-15 18:09:00,
2013-07-15 14:15:00,86.4,68.3,30.25,NNW,340,0.0,0.0,55,0.00,,,0.00,Wunderground v.1.13,2013-07-15 18:15:00,
2013-07-15 14:20:00,86.9,69.8,30.25,NNW,340,0.0,0.0,57,0.00,,,0.00,Wunderground v.1.13,2013-07-15 18:20:00,
2013-07-15 14:25:00,87.1,71.0,30.25,NNW,340,1.0,1.0,59,0.00,,,0.00,Wunderground v.1.13,2013-07-15 18:25:00,
2013-07-15 14:30:00,86.9,70.8,30.25,NNW,340,0.0,0.0,59,0.00,,,0.00,Wunderground v.1.13,2013-07-15 18:30:00,
2013-07-15 14:35:00,86.8,70.2,30.25,NNW,340,0.0,0.0,58,0.00,,,0.00,Wunderground v.1.13,2013-07-15 18:35:00,
2013-07-15 14:41:00,87.4,69.3,30.25,NNW,340,1.0,1.0,55,0.00,,,0.00,Wunderground v.1.13,2013-07-15 18:41:00,
2013-07-15 14:46:00,86.5,70.0,30.25,NNW,328,0.0,3.0,58,0.00,,,0.00,Wunderground v.1.13,2013-07-15 18:46:00,
2013-07-15 14:51:00,87.0,69.4,30.25,NW,311,1.0,1.0,56,0.00,,,0.00,Wunderground v.1.13,2013-07-15 18:51:00,
2013-07-15 14:56:00,86.1,70.1,30.25,WNW,303,0.0,1.0,59,0.00,,,0.00,Wunderground v.1.13,2013-07-15 18:56:00,
2013-07-15 15:01:00,86.0,71.0,30.25,WNW,303,0.0,1.0,61,0.00,,,0.00,Wunderground v.1.13,2013-07-15 19:01:00,
2013-07-15 15:06:00,85.9,71.4,30.25,NW,326,0.0,4.0,62,0.00,,,0.00,Wunderground v.1.13,2013-07-15 19:06:00,
2013-07-15 15:11:00,86.8,70.8,30.24,NNW,332,0.0,4.0,59,0.00,,,0.00,Wunderground v.1.13,2013-07-15 19:11:00,
2013-07-15 15:16:00,87.2,69.6,30.24,NNW,332,0.0,2.0,56,0.00,,,0.00,Wunderground v.1.13,2013-07-15 19:16:00,
2013-07-15 15:22:00,85.5,70.5,30.24,NNW,332,0.0,0.0,61,0.00,,,0.00,Wunderground v.1.13,2013-07-15 19:22:00,
2013-07-15 15:27:00,84.5,71.4,30.24,NNW,332,0.0,1.0,65,0.00,,,0.00,Wunderground v.1.13,2013-07-15 19:27:00,
2013-07-15 15:32:00,83.6,74.0,30.24,NNW,332,0.0,0.0,73,0.00,,,0.00,Wunderground v.1.13,2013-07-15 19:32:00,
2013-07-15 15:37:00,83.1,73.9,30.24,NNW,332,0.0,0.0,74,0.00,,,0.00,Wunderground v.1.13,2013-07-15 19:37:00,
2013-07-15 15:42:00,85.3,73.5,30.24,NNW,332,0.0,1.0,68,0.00,,,0.00,Wunderground v.1.13,2013-07-15 19:42:00,
2013-07-15 15:47:00,86.4,71.8,30.24,NNW,332,0.0,0.0,62,0.00,,,0.00,Wunderground v.1.13,2013-07-15 19:47:00,
2013-07-15 15:52:00,87.1,70.5,30.24,NNW,332,1.0,1.0,58,0.00,,,0.00,Wunderground v.1.13,2013-07-15 19:52:00,
2013-07-15 15:57:00,87.1,69.5,30.23,NNW,332,0.0,2.0,56,0.00,,,0.00,Wunderground v.1.13,2013-07-15 19:57:00,
2013-07-15 16:02:00,86.9,70.8,30.23,NNW,332,0.0,1.0,59,0.00,,,0.00,Wunderground v.1.13,2013-07-15 20:02:00,
2013-07-15 16:07:00,87.3,68.6,30.23,NNW,332,0.0,1.0,54,0.00,,,0.00,Wunderground v.1.13,2013-07-15 20:07:00,
2013-07-15 16:12:00,87.7,70.1,30.23,NNW,332,0.0,0.0,56,0.00,,,0.00,Wunderground v.1.13,2013-07-15 20:12:00,
2013-07-15 16:17:00,87.9,70.2,30.23,NNW,332,0.0,4.0,56,0.00,,,0.00,Wunderground v.1.13,2013-07-15 20:17:00,
2013-07-15 16:23:00,87.5,69.3,30.23,NNW,332,1.0,1.0,55,0.00,,,0.00,Wunderground v.1.13,2013-07-15 20:23:00,
2013-07-15 16:28:00,87.8,72.7,30.23,NNW,332,2.0,2.0,61,0.00,,,0.00,Wunderground v.1.13,2013-07-15 20:28:00,
2013-07-15 16:33:00,87.8,71.2,30.23,NNW,332,0.0,4.0,58,0.00,,,0.00,Wunderground v.1.13,2013-07-15 20:33:00,
2013-07-15 16:38:00,87.5,69.9,30.23,NNW,332,0.0,1.0,56,0.00,,,0.00,Wunderground v.1.13,2013-07-15 20:38:00,
2013-07-15 16:43:00,87.8,70.7,30.22,NNW,332,0.0,1.0,57,0.00,,,0.00,Wunderground v.1.13,2013-07-15 20:43:00,
2013-07-15 16:48:00,87.5,69.3,30.22,NNW,331,0.0,2.0,55,0.00,,,0.00,Wunderground v.1.13,2013-07-15 20:48:00,
2013-07-15 16:53:00,87.6,71.0,30.22,NNW,331,0.0,1.0,58,0.00,,,0.00,Wunderground v.1.13,2013-07-15 20:53:00,
2013-07-15 16:58:00,87.5,70.4,30.22,NNW,331,0.0,2.0,57,0.00,,,0.00,Wunderground v.1.13,2013-07-15 20:58:00,
2013-07-15 17:04:00,87.3,69.7,30.22,NNW,331,0.0,0.0,56,0.00,,,0.00,Wunderground v.1.13,2013-07-15 21:04:00,
2013-07-15 17:09:00,87.6,71.0,30.22,NNW,331,0.0,0.0,58,0.00,,,0.00,Wunderground v.1.13,2013-07-15 21:09:00,
2013-07-15 17:14:00,87.6,72.0,30.22,NNW,331,0.0,0.0,60,0.00,,,0.00,Wunderground v.1.13,2013-07-15 21:14:00,
2013-07-15 17:20:00,87.0,72.4,30.22,NNW,331,0.0,0.0,62,0.00,,,0.00,Wunderground v.1.13,2013-07-15 21:20:00,
2013-07-15 17:25:00,87.3,71.7,30.22,NNW,331,0.0,0.0,60,0.00,,,0.00,Wunderground v.1.13,2013-07-15 21:25:00,
2013-07-15 17:30:00,87.0,76.0,30.21,NW,323,1.0,1.0,70,0.00,,,0.00,Wunderground v.1.13,2013-07-15 21:30:00,
2013-07-15 17:35:00,86.9,72.8,30.21,NW,323,0.0,0.0,63,0.00,,,0.00,Wunderground v.1.13,2013-07-15 21:35:00,
2013-07-15 17:40:00,86.4,73.7,30.21,NW,323,0.0,0.0,66,0.00,,,0.00,Wunderground v.1.13,2013-07-15 21:40:00,
2013-07-15 17:45:00,85.7,70.7,30.21,NW,323,0.0,0.0,61,0.00,,,0.00,Wunderground v.1.13,2013-07-15 21:45:00,
2013-07-15 17:50:00,86.4,73.7,30.21,NW,323,0.0,0.0,66,0.00,,,0.00,Wunderground v.1.13,2013-07-15 21:50:00,
2013-07-15 17:55:00,85.1,75.1,30.21,NW,323,0.0,0.0,72,0.00,,,0.00,Wunderground v.1.13,2013-07-15 21:55:00,
2013-07-15 18:00:00,85.6,72.5,30.21,NW,323,0.0,0.0,65,0.00,,,0.00,Wunderground v.1.13,2013-07-15 22:00:00,
2013-07-15 18:05:00,84.6,75.0,30.20,NW,323,0.0,1.0,73,0.00,,,0.00,Wunderground v.1.13,2013-07-15 22:05:00,
2013-07-15 18:11:00,83.9,74.7,30.20,NW,323,0.0,1.0,74,0.00,,,0.00,Wunderground v.1.13,2013-07-15 22:11:00,
2013-07-15 18:16:00,84.1,74.1,30.20,NW,323,0.0,1.0,72,0.00,,,0.00,Wunderground v.1.13,2013-07-15 22:16:00,
2013-07-15 18:21:00,83.8,74.2,30.20,NW,323,0.0,0.0,73,0.00,,,0.00,Wunderground v.1.13,2013-07-15 22:21:00,
2013-07-15 18:26:00,84.0,71.4,30.20,NW,323,0.0,0.0,66,0.00,,,0.00,Wunderground v.1.13,2013-07-15 22:26:00,
2013-07-15 18:31:00,83.3,73.7,30.20,NW,323,0.0,0.0,73,0.00,,,0.00,Wunderground v.1.13,2013-07-15 22:31:00,
2013-07-15 18:36:00,82.7,73.6,30.20,NW,323,0.0,1.0,74,0.00,,,0.00,Wunderground v.1.13,2013-07-15 22:36:00,
2013-07-15 18:42:00,82.0,74.1,30.20,NW,323,0.0,0.0,77,0.00,,,0.00,Wunderground v.1.13,2013-07-15 22:42:00,
2013-07-15 18:47:00,81.8,73.9,30.20,NW,323,0.0,1.0,77,0.00,,,0.00,Wunderground v.1.13,2013-07-15 22:47:00,
2013-07-15 18:52:00,81.2,73.7,30.20,NW,323,0.0,0.0,78,0.00,,,0.00,Wunderground v.1.13,2013-07-15 22:52:00,
2013-07-15 18:57:00,80.7,73.2,30.20,NW,323,0.0,1.0,78,0.00,,,0.00,Wunderground v.1.13,2013-07-15 22:57:00,
2013-07-15 19:02:00,80.3,73.2,30.20,NW,323,0.0,1.0,79,0.00,,,0.00,Wunderground v.1.13,2013-07-15 23:02:00,
2013-07-15 19:07:00,80.0,73.3,30.20,NW,323,1.0,1.0,80,0.00,,,0.00,Wunderground v.1.13,2013-07-15 23:07:00,
2013-07-15 19:13:00,79.6,72.9,30.20,NW,323,0.0,0.0,80,0.00,,,0.00,Wunderground v.1.13,2013-07-15 23:13:00,
2013-07-15 19:18:00,79.3,73.7,30.20,NW,323,0.0,0.0,83,0.00,,,0.00,Wunderground v.1.13,2013-07-15 23:18:00,
2013-07-15 19:23:00,78.5,73.3,30.20,NW,323,0.0,0.0,84,0.00,,,0.00,Wunderground v.1.13,2013-07-15 23:23:00,
2013-07-15 19:28:00,78.0,73.5,30.20,NW,323,0.0,0.0,86,0.00,,,0.00,Wunderground v.1.13,2013-07-15 23:28:00,
2013-07-15 19:33:00,77.8,73.6,30.20,NW,323,0.0,0.0,87,0.00,,,0.00,Wunderground v.1.13,2013-07-15 23:33:00,
2013-07-15 19:38:00,77.3,73.1,30.20,NW,323,0.0,0.0,87,0.00,,,0.00,Wunderground v.1.13,2013-07-15 23:38:00,
2013-07-15 19:43:00,77.1,73.3,30.20,NW,323,0.0,0.0,88,0.00,,,0.00,Wunderground v.1.13,2013-07-15 23:43:00,
2013-07-15 19:48:00,76.7,73.2,30.20,NW,323,0.0,0.0,89,0.00,,,0.00,Wunderground v.1.13,2013-07-15 23:48:00,
2013-07-15 19:53:00,76.6,73.1,30.20,NW,323,0.0,0.0,89,0.00,,,0.00,Wunderground v.1.13,2013-07-15 23:53:00,
2013-07-15 19:59:00,76.4,72.9,30.20,NW,323,0.0,0.0,89,0.00,,,0.00,Wunderground v.1.13,2013-07-15 23:59:00,
2013-07-15 20:04:00,76.2,72.7,30.20,NW,323,0.0,0.0,89,0.00,,,0.00,Wunderground v.1.13,2013-07-16 00:04:00,
2013-07-15 20:09:00,75.9,72.8,30.20,NW,323,0.0,0.0,90,0.00,,,0.00,Wunderground v.1.13,2013-07-16 00:09:00,
2013-07-15 20:14:00,75.7,72.9,30.20,NNW,334,0.0,0.0,91,0.00,,,0.00,Wunderground v.1.13,2013-07-16 00:14:00,
2013-07-15 20:19:00,75.5,72.7,30.20,NNW,334,0.0,0.0,91,0.00,,,0.00,Wunderground v.1.13,2013-07-16 00:19:00,
2013-07-15 20:24:00,75.2,72.4,30.20,NNW,334,0.0,0.0,91,0.00,,,0.00,Wunderground v.1.13,2013-07-16 00:24:00,
2013-07-15 20:29:00,75.0,72.5,30.20,NW,319,0.0,0.0,92,0.00,,,0.00,Wunderground v.1.13,2013-07-16 00:29:00,
2013-07-15 20:34:00,74.7,72.2,30.20,NW,319,0.0,0.0,92,0.00,,,0.00,Wunderground v.1.13,2013-07-16 00:34:00,
2013-07-15 20:39:00,74.4,71.9,30.20,NW,319,0.0,0.0,92,0.00,,,0.00,Wunderground v.1.13,2013-07-16 00:39:00,
2013-07-15 20:45:00,74.1,71.9,30.20,NW,319,0.0,0.0,93,0.00,,,0.00,Wunderground v.1.13,2013-07-16 00:45:00,
2013-07-15 20:50:00,73.9,71.7,30.20,NW,319,0.0,0.0,93,0.00,,,0.00,Wunderground v.1.13,2013-07-16 00:50:00,
2013-07-15 20:55:00,73.7,71.9,30.20,NW,319,0.0,0.0,94,0.00,,,0.00,Wunderground v.1.13,2013-07-16 00:55:00,
2013-07-15 21:00:00,73.5,71.7,30.20,NW,319,0.0,0.0,94,0.00,,,0.00,Wunderground v.1.13,2013-07-16 01:00:00,
2013-07-15 21:05:00,73.2,71.4,30.20,NW,319,0.0,0.0,94,0.00,,,0.00,Wunderground v.1.13,2013-07-16 01:05:00,
2013-07-15 21:10:00,73.0,71.2,30.20,NW,319,0.0,0.0,94,0.00,,,0.00,Wunderground v.1.13,2013-07-16 01:10:00,
2013-07-15 21:16:00,72.8,71.0,30.21,NW,319,0.0,0.0,94,0.00,,,0.00,Wunderground v.1.13,2013-07-16 01:16:00,
2013-07-15 21:21:00,72.6,71.1,30.21,NW,319,0.0,0.0,95,0.00,,,0.00,Wunderground v.1.13,2013-07-16 01:21:00,
2013-07-15 21:26:00,72.5,71.0,30.21,NW,319,0.0,0.0,95,0.00,,,0.00,Wunderground v.1.13,2013-07-16 01:26:00,
2013-07-15 21:31:00,72.0,70.2,30.21,NW,319,0.0,0.0,94,0.00,,,0.00,Wunderground v.1.13,2013-07-16 01:31:00,
2013-07-15 21:36:00,71.9,70.4,30.22,NW,319,0.0,0.0,95,0.00,,,0.00,Wunderground v.1.13,2013-07-16 01:36:00,
2013-07-15 21:41:00,71.9,70.4,30.22,NW,319,0.0,0.0,95,0.00,,,0.00,Wunderground v.1.13,2013-07-16 01:41:00,
2013-07-15 21:46:00,71.8,70.3,30.22,NW,319,0.0,0.0,95,0.00,,,0.00,Wunderground v.1.13,2013-07-16 01:46:00,
2013-07-15 21:51:00,71.5,70.0,30.23,NW,319,0.0,0.0,95,0.00,,,0.00,Wunderground v.1.13,2013-07-16 01:51:00,
2013-07-15 21:56:00,71.3,69.8,30.23,NW,319,0.0,0.0,95,0.00,,,0.00,Wunderground v.1.13,2013-07-16 01:56:00,
2013-07-15 22:02:00,71.0,69.5,30.23,NW,319,0.0,0.0,95,0.00,,,0.00,Wunderground v.1.13,2013-07-16 02:02:00,
2013-07-15 22:07:00,70.9,69.7,30.23,NW,319,0.0,0.0,96,0.00,,,0.00,Wunderground v.1.13,2013-07-16 02:07:00,
2013-07-15 22:12:00,70.7,69.5,30.23,NW,319,0.0,0.0,96,0.00,,,0.00,Wunderground v.1.13,2013-07-16 02:12:00,
2013-07-15 22:17:00,70.6,69.4,30.23,NW,319,0.0,0.0,96,0.00,,,0.00,Wunderground v.1.13,2013-07-16 02:17:00,
2013-07-15 22:22:00,70.6,69.4,30.23,NW,319,0.0,0.0,96,0.00,,,0.00,Wunderground v.1.13,2013-07-16 02:22:00,
2013-07-15 22:27:00,70.5,69.3,30.23,NW,319,0.0,0.0,96,0.00,,,0.00,Wunderground v.1.13,2013-07-16 02:27:00,
2013-07-15 22:33:00,70.3,69.1,30.23,NW,319,0.0,0.0,96,0.00,,,0.00,Wunderground v.1.13,2013-07-16 02:33:00,
2013-07-15 22:38:00,70.0,68.8,30.23,NW,319,0.0,0.0,96,0.00,,,0.00,Wunderground v.1.13,2013-07-16 02:38:00,
2013-07-15 22:43:00,69.9,68.7,30.24,NW,319,0.0,0.0,96,0.00,,,0.00,Wunderground v.1.13,2013-07-16 02:43:00,
2013-07-15 22:48:00,69.8,68.6,30.23,NW,319,0.0,0.0,96,0.00,,,0.00,Wunderground v.1.13,2013-07-16 02:48:00,
2013-07-15 22:53:00,69.6,68.4,30.24,NW,319,0.0,0.0,96,0.00,,,0.00,Wunderground v.1.13,2013-07-16 02:53:00,
2013-07-15 22:59:00,69.7,68.5,30.24,NW,319,0.0,0.0,96,0.00,,,0.00,Wunderground v.1.13,2013-07-16 02:59:00,
2013-07-15 23:05:00,69.5,68.3,30.24,NW,319,0.0,0.0,96,0.00,,,0.00,Wunderground v.1.13,2013-07-16 03:05:00,
2013-07-15 23:10:00,69.1,67.9,30.24,NW,319,0.0,0.0,96,0.00,,,0.00,Wunderground v.1.13,2013-07-16 03:10:00,
2013-07-15 23:16:00,69.1,68.2,30.24,NW,319,0.0,0.0,97,0.00,,,0.00,Wunderground v.1.13,2013-07-16 03:16:00,
2013-07-15 23:21:00,69.1,68.2,30.24,NW,319,0.0,0.0,97,0.00,,,0.00,Wunderground v.1.13,2013-07-16 03:21:00,
2013-07-15 23:26:00,69.1,68.2,30.24,NW,319,0.0,0.0,97,0.00,,,0.00,Wunderground v.1.13,2013-07-16 03:26:00,
2013-07-15 23:31:00,69.0,68.1,30.24,NW,319,0.0,0.0,97,0.00,,,0.00,Wunderground v.1.13,2013-07-16 03:31:00,
2013-07-15 23:37:00,68.8,67.6,30.24,NW,319,0.0,0.0,96,0.00,,,0.00,Wunderground v.1.13,2013-07-16 03:37:00,
2013-07-15 23:42:00,68.6,67.4,30.24,NW,319,0.0,0.0,96,0.00,,,0.00,Wunderground v.1.13,2013-07-16 03:42:00,
2013-07-15 23:47:00,68.5,67.6,30.24,NW,319,0.0,0.0,97,0.00,,,0.00,Wunderground v.1.13,2013-07-16 03:47:00,
2013-07-15 23:52:00,68.5,67.6,30.24,NW,319,0.0,0.0,97,0.00,,,0.00,Wunderground v.1.13,2013-07-16 03:52:00,
2013-07-15 23:57:00,68.5,67.6,30.24,NW,319,0.0,0.0,97,0.00,,,0.00,Wunderground v.1.13,2013-07-16 03:57:00,